| time (UTC) | temp C | wind direction | speed KPH | gust KPH | rain 1hr cm | rain 24hr cm | rain mn cm | humidity % | barometer mb |
| 20260504224006 | 3 | 17 | 20.9 | 35.4 | 0.00 | 0.03 | 0.03 | 45 | 977.0 |
| 20260504223507 | 3 | 317 | 20.9 | 35.4 | 0.00 | 0.03 | 0.03 | 44 | 976.9 |
| 20260504223005 | 3 | 350 | 24.1 | 37.0 | 0.00 | 0.03 | 0.03 | 43 | 976.8 |
| 20260504222504 | 3 | 333 | 22.5 | 37.0 | 0.00 | 0.03 | 0.03 | 41 | 976.8 |
| 20260504222007 | 3 | 351 | 20.9 | 33.8 | 0.00 | 0.03 | 0.03 | 43 | 976.7 |
| 20260504221505 | 3 | 348 | 20.9 | 33.8 | 0.00 | 0.03 | 0.03 | 43 | 976.6 |
| 20260504221003 | 3 | 338 | 16.1 | 33.8 | 0.00 | 0.03 | 0.03 | 43 | 976.5 |
| 20260504220503 | 3 | 306 | 17.7 | 33.8 | 0.00 | 0.03 | 0.03 | 42 | 976.6 |
| 20260504220003 | 3 | 340 | 20.9 | 40.2 | 0.00 | 0.03 | 0.03 | 43 | 976.5 |
| 20260504215503 | 3 | 342 | 24.1 | 40.2 | 0.00 | 0.03 | 0.03 | 43 | 976.5 |
| 20260504215006 | 3 | 355 | 24.1 | 35.4 | 0.00 | 0.03 | 0.03 | 43 | 976.4 |
| 20260504214502 | 3 | 330 | 22.5 | 40.2 | 0.00 | 0.03 | 0.03 | 43 | 976.4 |
| 20260504214004 | 3 | 329 | 22.5 | 38.6 | 0.00 | 0.03 | 0.03 | 44 | 976.3 |
| 20260504213502 | 3 | 349 | 22.5 | 38.6 | 0.00 | 0.03 | 0.03 | 45 | 976.2 |
| 20260504213004 | 3 | 333 | 24.1 | 35.4 | 0.00 | 0.03 | 0.03 | 44 | 976.3 |
| 20260504212502 | 3 | 329 | 25.7 | 40.2 | 0.00 | 0.03 | 0.03 | 44 | 976.2 |
| 20260504212001 | 3 | 346 | 24.1 | 40.2 | 0.00 | 0.03 | 0.03 | 47 | 976.1 |
| 20260504211600 | 3 | 348 | 24.1 | 38.6 | 0.00 | 0.03 | 0.03 | 46 | 976.0 |
| 20260504211100 | 3 | 300 | 25.7 | 38.6 | 0.00 | 0.03 | 0.03 | 45 | 976.1 |
| 20260504210600 | 3 | 336 | 24.1 | 41.8 | 0.00 | 0.03 | 0.03 | 46 | 976.2 |
| 20260504210100 | 3 | 313 | 22.5 | 37.0 | 0.00 | 0.03 | 0.03 | 46 | 976.1 |
| 20260504205604 | 3 | 331 | 25.7 | 43.5 | 0.00 | 0.03 | 0.03 | 47 | 976.0 |
| 20260504205103 | 3 | 336 | 22.5 | 43.5 | 0.00 | 0.03 | 0.03 | 48 | 976.1 |
| 20260504204559 | 3 | 335 | 24.1 | 41.8 | 0.00 | 0.03 | 0.03 | 48 | 976.1 |
| 20260504204100 | 3 | 318 | 24.1 | 41.8 | 0.00 | 0.03 | 0.03 | 49 | 976.2 |
| 20260504203601 | 2 | 312 | 27.4 | 41.8 | 0.00 | 0.03 | 0.03 | 47 | 976.3 |
| 20260504203058 | 3 | 317 | 25.7 | 45.1 | 0.00 | 0.03 | 0.03 | 47 | 976.1 |
| 20260504202558 | 2 | 323 | 30.6 | 45.1 | 0.00 | 0.03 | 0.03 | 48 | 976.0 |
| 20260504202058 | 2 | 346 | 24.1 | 46.7 | 0.00 | 0.03 | 0.03 | 49 | 976.0 |
| 20260504201601 | 2 | 344 | 29.0 | 46.7 | 0.00 | 0.03 | 0.03 | 48 | 975.9 |
| 20260504201056 | 2 | 342 | 29.0 | 46.7 | 0.00 | 0.03 | 0.03 | 48 | 975.9 |
| 20260504200556 | 2 | 5 | 25.7 | 41.8 | 0.00 | 0.03 | 0.03 | 48 | 975.7 |
| 20260504200055 | 3 | 330 | 25.7 | 43.5 | 0.00 | 0.03 | 0.03 | 47 | 975.7 |
| 20260504195555 | 3 | 285 | 27.4 | 45.1 | 0.00 | 0.03 | 0.03 | 48 | 975.7 |
| 20260504195057 | 3 | 355 | 29.0 | 45.1 | 0.00 | 0.03 | 0.03 | 49 | 975.6 |
| 20260504194602 | 3 | 332 | 29.0 | 41.8 | 0.00 | 0.03 | 0.03 | 48 | 975.5 |
| 20260504194054 | 3 | 330 | 27.4 | 41.8 | 0.00 | 0.03 | 0.03 | 49 | 975.3 |
| 20260504193554 | 3 | 5 | 27.4 | 41.8 | 0.00 | 0.03 | 0.03 | 49 | 975.4 |
| 20260504193053 | 3 | 309 | 29.0 | 41.8 | 0.00 | 0.03 | 0.03 | 50 | 975.4 |
| 20260504192551 | 3 | 347 | 25.7 | 45.1 | 0.00 | 0.03 | 0.03 | 48 | 975.3 |
| 20260504192051 | 3 | 306 | 27.4 | 49.9 | 0.00 | 0.03 | 0.03 | 50 | 975.1 |
| 20260504191610 | 3 | 338 | 29.0 | 45.1 | 0.00 | 0.03 | 0.03 | 49 | 975.0 |
| 20260504191050 | 3 | 292 | 29.0 | 43.5 | 0.00 | 0.03 | 0.03 | 49 | 974.9 |
| 20260504190548 | 3 | 340 | 27.4 | 46.7 | 0.00 | 0.03 | 0.03 | 49 | 974.8 |
| 20260504190049 | 3 | 292 | 30.6 | 46.7 | 0.00 | 0.03 | 0.03 | 51 | 974.6 |
| 20260504185548 | 3 | 323 | 30.6 | 43.5 | 0.00 | 0.03 | 0.03 | 50 | 974.6 |
| 20260504185047 | 3 | 337 | 24.1 | 41.8 | 0.00 | 0.03 | 0.03 | 51 | 974.4 |
| 20260504184555 | 3 | 355 | 27.4 | 43.5 | 0.00 | 0.03 | 0.03 | 50 | 974.4 |
| 20260504184047 | 3 | 336 | 29.0 | 43.5 | 0.00 | 0.03 | 0.03 | 52 | 974.4 |
| 20260504183547 | 3 | 360 | 27.4 | 40.2 | 0.00 | 0.03 | 0.03 | 51 | 974.4 |
| 20260504183046 | 3 | 341 | 29.0 | 43.5 | 0.00 | 0.03 | 0.03 | 51 | 974.4 |
| 20260504182548 | 3 | 323 | 30.6 | 45.1 | 0.00 | 0.03 | 0.03 | 50 | 974.4 |
| 20260504182046 | 3 | 334 | 29.0 | 41.8 | 0.00 | 0.03 | 0.03 | 50 | 974.3 |
| 20260504181546 | 4 | 360 | 25.7 | 41.8 | 0.00 | 0.03 | 0.03 | 49 | 974.4 |
| 20260504181044 | 4 | 351 | 29.0 | 38.6 | 0.00 | 0.03 | 0.03 | 48 | 974.1 |
| 20260504180547 | 4 | 286 | 27.4 | 45.1 | 0.00 | 0.03 | 0.03 | 49 | 974.1 |
| 20260504180045 | 3 | 300 | 25.7 | 43.5 | 0.00 | 0.03 | 0.03 | 50 | 974.0 |
| 20260504175545 | 3 | 343 | 29.0 | 45.1 | 0.00 | 0.03 | 0.03 | 49 | 974.1 |
| 20260504175144 | 3 | 312 | 30.6 | 45.1 | 0.00 | 0.03 | 0.03 | 49 | 973.9 |
| 20260504174543 | 3 | 330 | 24.1 | 41.8 | 0.00 | 0.03 | 0.03 | 48 | 973.9 |
| 20260504174043 | 2 | 296 | 22.5 | 43.5 | 0.00 | 0.03 | 0.03 | 49 | 973.9 |
| 20260504173544 | 2 | 284 | 27.4 | 43.5 | 0.00 | 0.03 | 0.03 | 49 | 973.9 |
| 20260504173043 | 2 | 313 | 25.7 | 43.5 | 0.00 | 0.03 | 0.03 | 51 | 973.9 |
| 20260504172541 | 2 | 311 | 29.0 | 43.5 | 0.00 | 0.03 | 0.03 | 51 | 973.8 |
| 20260504172044 | 2 | 315 | 22.5 | 41.8 | 0.00 | 0.03 | 0.03 | 51 | 973.5 |
| 20260504171542 | 2 | 319 | 24.1 | 37.0 | 0.00 | 0.03 | 0.03 | 55 | 973.7 |
| 20260504171039 | 2 | 325 | 22.5 | 40.2 | 0.00 | 0.03 | 0.03 | 59 | 973.7 |
| 20260504170540 | 1 | 321 | 25.7 | 46.7 | 0.00 | 0.03 | 0.03 | 55 | 973.6 |
| 20260504151019 | 4 | 348 | 32.2 | 46.7 | 0.00 | 0.03 | 0.03 | 43 | 972.2 |
| 20260504150524 | 4 | 297 | 30.6 | 45.1 | 0.00 | 0.03 | 0.03 | 42 | 972.2 |
| 20260504141013 | 3 | 267 | 20.9 | 38.6 | 0.00 | 0.03 | 0.03 | 50 | 972.0 |
| 20260504140508 | 3 | 263 | 24.1 | 43.5 | 0.00 | 0.03 | 0.03 | 49 | 971.8 |
| 20260504130501 | 2 | 323 | 27.4 | 38.6 | 0.00 | 0.03 | 0.03 | 52 | 971.2 |
| 20260504110543 | 2 | 301 | 22.5 | 45.1 | 0.00 | 0.03 | 0.03 | 53 | 969.4 |
| 20260504100533 | 2 | 306 | 25.7 | 46.7 | 0.00 | 0.03 | 0.03 | 56 | 968.7 |
| 20260504081516 | 3 | 306 | 27.4 | 43.5 | 0.00 | 0.03 | 0.03 | 55 | 966.9 |
| 20260504081019 | 3 | 279 | 24.1 | 48.3 | 0.00 | 0.03 | 0.03 | 55 | 966.8 |
| 20260504080514 | 3 | 294 | 30.6 | 46.7 | 0.00 | 0.03 | 0.03 | 54 | 966.7 |
| 20260504050537 | 9 | 291 | 17.7 | 30.6 | 0.03 | 0.03 | 0.03 | 49 | 964.2 |
| 20260504045535 | 9 | 279 | 12.9 | 19.3 | 0.00 | 0.00 | 0.00 | 49 | 964.0 |
| 20260504045035 | 9 | 257 | 12.9 | 24.1 | 0.00 | 0.00 | 0.00 | 49 | 963.9 |
| 20260504044537 | 9 | 242 | 12.9 | 24.1 | 0.00 | 0.00 | 0.00 | 49 | 963.9 |
| 20260504044036 | 8 | 255 | 14.5 | 20.9 | 0.00 | 0.00 | 0.00 | 49 | 963.8 |
| 20260504043536 | 8 | 255 | 11.3 | 20.9 | 0.00 | 0.00 | 0.00 | 50 | 963.9 |
| 20260504043037 | 8 | 264 | 12.9 | 20.9 | 0.00 | 0.00 | 0.00 | 49 | 964.0 |
| 20260504042535 | 8 | 234 | 12.9 | 22.5 | 0.00 | 0.00 | 0.00 | 49 | 964.0 |
| 20260504042034 | 8 | 360 | 14.5 | 22.5 | 0.00 | 0.00 | 0.00 | 51 | 964.0 |
| 20260504041534 | 8 | 232 | 11.3 | 19.3 | 0.00 | 0.00 | 0.00 | 54 | 964.1 |
| 20260504041034 | 8 | 240 | 9.7 | 16.1 | 0.00 | 0.00 | 0.00 | 53 | 964.2 |
| 20260504040537 | 8 | 360 | 9.7 | 17.7 | 0.00 | 0.00 | 0.00 | 52 | 964.2 |
| 20260504040034 | 8 | 240 | 12.9 | 17.7 | 0.00 | 0.00 | 0.00 | 50 | 964.2 |
| 20260504035534 | 8 | 226 | 8.0 | 14.5 | 0.00 | 0.00 | 0.00 | 51 | 964.1 |
| 20260504035034 | 8 | 242 | 9.7 | 14.5 | 0.00 | 0.00 | 0.00 | 51 | 964.1 |
| 20260504034534 | 9 | 240 | 8.0 | 17.7 | 0.00 | 0.00 | 0.00 | 51 | 964.2 |
| 20260504034037 | 8 | 252 | 8.0 | 20.9 | 0.00 | 0.00 | 0.00 | 50 | 964.0 |
| 20260504033533 | 8 | 239 | 6.4 | 33.8 | 0.00 | 0.00 | 0.00 | 51 | 964.3 |
| 20260504033040 | 8 | 226 | 16.1 | 33.8 | 0.00 | 0.00 | 0.00 | 54 | 964.9 |
| 20260504032537 | 8 | 248 | 11.3 | 24.1 | 0.00 | 0.00 | 0.00 | 55 | 965.1 |
| 20260504032035 | 8 | 246 | 16.1 | 27.4 | 0.00 | 0.00 | 0.00 | 55 | 965.1 |
| 20260504031533 | 8 | 255 | 16.1 | 32.2 | 0.00 | 0.00 | 0.00 | 56 | 965.3 |
| 20260504031032 | 8 | 294 | 19.3 | 33.8 | 0.00 | 0.00 | 0.00 | 56 | 965.7 |
| 20260504030532 | 9 | 257 | 17.7 | 35.4 | 0.00 | 0.00 | 0.00 | 56 | 966.0 |
| 20260504030033 | 9 | 280 | 25.7 | 46.7 | 0.00 | 0.00 | 0.00 | 55 | 966.1 |
| 20260504025532 | 10 | 290 | 30.6 | 49.9 | 0.00 | 0.00 | 0.00 | 54 | 966.1 |
| 20260504025034 | 11 | 284 | 29.0 | 45.1 | 0.00 | 0.00 | 0.00 | 50 | 965.9 |
| 20260504024541 | 11 | 263 | 30.6 | 45.1 | 0.00 | 0.00 | 0.00 | 46 | 965.8 |
| 20260504024032 | 12 | 267 | 32.2 | 46.7 | 0.00 | 0.00 | 0.00 | 45 | 965.6 |
| 20260504023532 | 12 | 269 | 27.4 | 53.1 | 0.00 | 0.00 | 0.00 | 45 | 965.6 |
| 20260504023032 | 12 | 291 | 32.2 | 56.3 | 0.00 | 0.00 | 0.00 | 42 | 965.3 |
| 20260504022535 | 13 | 269 | 33.8 | 56.3 | 0.00 | 0.00 | 0.00 | 39 | 965.1 |
| 20260504022032 | 14 | 285 | 24.1 | 45.1 | 0.00 | 0.00 | 0.00 | 37 | 964.9 |
| 20260504021532 | 15 | 277 | 24.1 | 53.1 | 0.00 | 0.00 | 0.00 | 34 | 964.6 |
| 20260504021030 | 15 | 263 | 22.5 | 53.1 | 0.00 | 0.00 | 0.00 | 32 | 964.3 |
| 20260504020530 | 15 | 285 | 24.1 | 41.8 | 0.00 | 0.00 | 0.00 | 30 | 964.4 |
| 20260504020030 | 15 | 286 | 19.3 | 32.2 | 0.00 | 0.00 | 0.00 | 31 | 964.2 |
| 20260504015530 | 15 | 360 | 16.1 | 25.7 | 0.00 | 0.00 | 0.00 | 30 | 964.1 |
| 20260504015033 | 16 | 306 | 14.5 | 29.0 | 0.00 | 0.00 | 0.00 | 30 | 964.0 |
| 20260504014530 | 16 | 360 | 19.3 | 37.0 | 0.00 | 0.00 | 0.00 | 28 | 964.1 |
| 20260504014032 | 16 | 302 | 20.9 | 32.2 | 0.00 | 0.00 | 0.00 | 28 | 964.0 |
| 20260504013531 | 16 | 306 | 17.7 | 32.2 | 0.00 | 0.00 | 0.00 | 29 | 964.0 |
| 20260504013037 | 16 | 288 | 16.1 | 29.0 | 0.00 | 0.00 | 0.00 | 29 | 964.0 |
| 20260504012531 | 16 | 296 | 16.1 | 29.0 | 0.00 | 0.00 | 0.00 | 28 | 963.9 |
| 20260504012030 | 16 | 360 | 17.7 | 29.0 | 0.00 | 0.00 | 0.00 | 27 | 963.7 |
| 20260504011530 | 16 | 360 | 16.1 | 25.7 | 0.00 | 0.00 | 0.00 | 27 | 963.7 |
| 20260504011032 | 17 | 360 | 16.1 | 30.6 | 0.00 | 0.00 | 0.00 | 26 | 963.7 |
| 20260504010530 | 17 | 360 | 20.9 | 32.2 | 0.00 | 0.00 | 0.00 | 25 | 963.7 |
| 20260504010029 | 17 | 360 | 17.7 | 32.2 | 0.00 | 0.00 | 0.00 | 26 | 963.7 |
| 20260504005528 | 17 | 360 | 11.3 | 22.5 | 0.00 | 0.00 | 0.00 | 28 | 963.7 |
| 20260504005028 | 18 | 302 | 11.3 | 35.4 | 0.00 | 0.00 | 0.00 | 26 | 963.6 |
| 20260504004528 | 18 | 282 | 19.3 | 35.4 | 0.00 | 0.00 | 0.00 | 24 | 963.5 |
| 20260504004027 | 18 | 276 | 16.1 | 27.4 | 0.00 | 0.00 | 0.00 | 25 | 963.6 |
| 20260504003527 | 18 | 360 | 16.1 | 27.4 | 0.00 | 0.00 | 0.00 | 25 | 963.7 |
| 20260504003038 | 18 | 254 | 17.7 | 25.7 | 0.00 | 0.00 | 0.00 | 25 | 963.7 |
| 20260504002529 | 18 | 273 | 16.1 | 25.7 | 0.00 | 0.00 | 0.00 | 25 | 963.8 |
| 20260504002025 | 19 | 360 | 14.5 | 22.5 | 0.00 | 0.00 | 0.00 | 25 | 963.9 |
| 20260504001525 | 19 | 292 | 14.5 | 29.0 | 0.00 | 0.00 | 0.00 | 25 | 964.0 |
| 20260504001028 | 19 | 292 | 14.5 | 29.0 | 0.00 | 0.00 | 0.00 | 25 | 964.0 |
| 20260504000523 | 19 | 360 | 17.7 | 29.0 | 0.00 | 0.00 | 0.00 | 27 | 964.1 |
| 20260504000023 | 20 | 236 | 14.5 | 27.4 | 0.00 | 0.00 | 0.00 | 31 | 964.1 |
| 20260503235522 | 20 | 360 | 16.1 | 32.2 | 0.00 | 0.00 | 0.00 | 31 | 964.0 |
| 20260503235022 | 20 | 275 | 22.5 | 32.2 | 0.00 | 0.00 | 0.00 | 31 | 964.1 |
| 20260503234522 | 20 | 245 | 20.9 | 32.2 | 0.00 | 0.00 | 0.00 | 31 | 964.1 |
| 20260503234022 | 20 | 273 | 16.1 | 33.8 | 0.00 | 0.00 | 0.00 | 32 | 964.2 |
| 20260503233523 | 20 | 249 | 22.5 | 41.8 | 0.00 | 0.00 | 0.00 | 33 | 964.3 |
| 20260503233024 | 20 | 245 | 25.7 | 41.8 | 0.00 | 0.00 | 0.00 | 32 | 964.3 |
| 20260503232523 | 20 | 236 | 22.5 | 40.2 | 0.00 | 0.00 | 0.00 | 32 | 964.5 |
| 20260503232019 | 20 | 229 | 25.7 | 38.6 | 0.00 | 0.00 | 0.00 | 32 | 964.4 |
| 20260503231519 | 20 | 236 | 24.1 | 45.1 | 0.00 | 0.00 | 0.00 | 32 | 964.6 |
| 20260503231022 | 20 | 360 | 29.0 | 45.1 | 0.00 | 0.00 | 0.00 | 32 | 964.7 |
| 20260503230519 | 20 | 220 | 29.0 | 49.9 | 0.00 | 0.00 | 0.00 | 32 | 964.5 |
| 20260503230017 | 20 | 360 | 38.6 | 51.5 | 0.00 | 0.00 | 0.00 | 32 | 964.6 |
| 20260503225517 | 20 | 238 | 32.2 | 51.5 | 0.00 | 0.00 | 0.00 | 33 | 964.7 |
| 20260503225021 | 19 | 236 | 29.0 | 53.1 | 0.00 | 0.00 | 0.00 | 34 | 964.7 |
| 20260503224526 | 20 | 242 | 40.2 | 53.1 | 0.00 | 0.00 | 0.00 | 33 | 964.8 |